This is the latest recevied weather packets stored in our database for station/object W4TJP. If no packets are shown the sender has not sent any weather packets the latest 10 day(s).
| Time | Temp. | Humidity | Pressure | Rain* | Wind** | Luminosity | Snow |
|---|---|---|---|---|---|---|---|
| 1777732504 | 13.89° C | 49% | 1016.1 hPa | 0 mm | - | 609 W/m² | - |
| 1777732202 | 13.89° C | 51% | 1015.9 hPa | 0 mm | - | 593 W/m² | - |
| 1777731899 | 13.89° C | 50% | 1015.6 hPa | 0 mm | - | 580 W/m² | - |
| 1777731596 | 13.33° C | 51% | 1016 hPa | 0 mm | - | 566 W/m² | - |
| 1777731294 | 12.78° C | 52% | 1015.9 hPa | 0 mm | - | 563 W/m² | - |
| 1777730990 | 12.78° C | 51% | 1015.9 hPa | 0 mm | - | 539 W/m² | - |
| 1777730689 | 13.33° C | 51% | 1016.2 hPa | 0 mm | - | 512 W/m² | - |
| 1777730385 | 12.78° C | 52% | 1016.1 hPa | 0 mm | - | 493 W/m² | - |
| 1777730081 | 12.78° C | 53% | 1016 hPa | 0 mm | - | 485 W/m² | - |
| 1777729778 | 12.78° C | 55% | 1015.7 hPa | 0 mm | - | 478 W/m² | - |
| 1777729475 | 13.33° C | 55% | 1015.9 hPa | 0 mm | - | 433 W/m² | - |
| 1777729171 | 12.78° C | 55% | 1015.8 hPa | 0 mm | - | 381 W/m² | - |
| 1777728868 | 12.78° C | 57% | 1015.8 hPa | 0 mm | - | 352 W/m² | - |
| 1777728565 | 12.22° C | 58% | 1015.7 hPa | 0 mm | - | 338 W/m² | - |
| 1777728262 | 12.22° C | 63% | 1015.7 hPa | 0 mm | - | 325 W/m² | - |
| 1777727959 | 12.78° C | 60% | 1015.9 hPa | 0 mm | - | 59 W/m² | - |
| 1777727656 | 12.78° C | 60% | 1015.8 hPa | 0 mm | - | 300 W/m² | - |
| 1777727353 | 12.78° C | 60% | 1015.9 hPa | 0 mm | - | 273 W/m² | - |
| 1777727050 | 11.67° C | 61% | 1016.1 hPa | 0 mm | - | 252 W/m² | - |
| 1777726748 | 11.67° C | 62% | 1015.9 hPa | 0 mm | - | 235 W/m² | - |
| 1777726445 | 11.11° C | 62% | 1016 hPa | 0 mm | - | 35 W/m² | - |
| 1777726141 | 11.11° C | 66% | 1015.9 hPa | 0 mm | - | 176 W/m² | - |
| 1777725838 | 10° C | 70% | 1015.9 hPa | 0 mm | - | 53 W/m² | - |
| 1777725536 | 8.89° C | 70% | 1015.9 hPa | 0 mm | - | 156 W/m² | - |
| 1777725233 | 8.89° C | 74% | 1016 hPa | 0 mm | - | 42 W/m² | - |
* Rain latest hour (hover to see other rain measurements)
** Current wind speed in m/s (hover to see current wind gust speed)